User: anonymous   Login
Location: Unspecified
(0.0000°N, 0.0000°E)
Time: 01:20:02
(UTC+01:00)
Language:

AO-7 - Orbit

View from above orbital plane
View from above orbital plane
View from above satellite
View from above satellite

Ground track
Ground track

The orbit data is extracted from the following two-line orbital elements,

1 07530U 74089B   15024.91013292 -.00000028  00000-0  97042-4 0  1777
2 07530 101.5028 004.6721 0011709 221.3691 193.9977 12.53611041839308
Epoch (UTC): 24 January 2015 21:50:35
Eccentricity: 0.0011709
inclination: 101.5028°
perigee height: 1440 km
apogee height: 1458 km
right ascension of ascending node: 4.6721°
argument of perigee: 221.3691°
revolutions per day: 12.53611041
mean anomaly at epoch: 193.9977°
orbit number at epoch: 83930

The dashed part of the orbit path shows where the satellite is in the earth's shadow,  

DLR